Location: Unspecified
(0.0000°N, 0.0000°E)
Time: 18:50:42
(UTC+01:00)

Cosmos 540 Rocket - Visible Passes

Search period start: 21 February 2019 00:00
Search period end: 03 March 2019 00:00
Orbit: 741 x 753 km, 74.1° (Epoch: 21 February)

Date Brightness Start Highest point End Pass type
(mag) Time Alt. Az. Time Alt. Az. Time Alt. Az.
21 Feb 3.4 06:14:14 10° NNW 06:19:20 67° WSW 06:24:27 10° S visible
22 Feb 4.3 05:31:08 10° N 05:36:05 49° ENE 05:41:04 10° SSE visible
23 Feb 5.8 04:50:07 14° NE 04:52:51 20° ENE 04:56:32 10° SE visible
23 Feb 4.6 06:30:09 10° NW 06:34:08 23° WSW 06:38:10 10° SSW visible
24 Feb 3.5 05:49:09 38° NW 05:50:53 57° WSW 05:55:58 10° S visible
25 Feb 4.0 05:08:07 55° E 05:08:07 55° E 05:12:43 10° SSE visible
26 Feb 6.0 04:26:57 16° ESE 04:26:57 16° ESE 04:28:26 10° SE visible
26 Feb 4.9 06:06:51 18° WSW 06:06:51 18° WSW 06:09:24 10° SSW visible
27 Feb 5.1 05:25:32 22° SSW 05:25:32 22° SSW 05:27:25 10° S visible
28 Feb 6.1 04:44:05 11° SSE 04:44:05 11° SSE 04:44:20 10° SSE visible
